This is the latest recevied weather packets stored in our database for station/object W9GWP. If no packets are shown the sender has not sent any weather packets the latest 10 day(s).
| Time | Temp. | Humidity | Pressure | Rain* | Wind** | Luminosity | Snow |
|---|---|---|---|---|---|---|---|
| 1778094458 | 12.22° C | 39% | 1042.1 hPa | 0 mm | - | 185 W/m² | - |
| 1778093553 | 13.33° C | 38% | 1042.3 hPa | 0 mm | - | 801 W/m² | - |
| 1778092651 | 12.22° C | 40% | 1042.6 hPa | 0 mm | - | 263 W/m² | - |
| 1778091751 | 12.22° C | 40% | 1042.3 hPa | 0 mm | - | 279 W/m² | - |
| 1778090848 | 11.67° C | 40% | 1042.2 hPa | 0 mm | - | 727 W/m² | - |
| 1778089947 | 12.78° C | 39% | 1042.4 hPa | 0 mm | - | 219 W/m² | - |
| 1778089045 | 12.78° C | 41% | 1042.6 hPa | 0 mm | - | 251 W/m² | - |
| 1778088141 | 12.22° C | 38% | 1042.5 hPa | 0 mm | - | 412 W/m² | - |
| 1778087239 | 12.22° C | 41% | 1042.9 hPa | 0 mm | - | 177 W/m² | - |
| 1778086336 | 11.67° C | 39% | 1042.8 hPa | 0 mm | - | 453 W/m² | - |
| 1778085433 | 11.67° C | 40% | 1043 hPa | 0 mm | - | 828 W/m² | - |
| 1778084528 | 11.67° C | 39% | 1042.9 hPa | 0 mm | - | 268 W/m² | - |
| 1778083626 | 11.67° C | 40% | 1042.7 hPa | 0 mm | - | 421 W/m² | - |
| 1778082724 | 10.56° C | 41% | 1042.8 hPa | 0 mm | - | 552 W/m² | - |
| 1778081591 | 10.56° C | 45% | 1042.8 hPa | 0 mm | - | 274 W/m² | - |
| 1778080690 | 11.11° C | 44% | 1043 hPa | 0 mm | - | 530 W/m² | - |
| 1778079786 | 10.56° C | 49% | 1042.7 hPa | 0 mm | - | 369 W/m² | - |
| 1778078883 | 10.56° C | 46% | 1043.1 hPa | 0 mm | - | 334 W/m² | - |
| 1778077980 | 10.56° C | 47% | 1043 hPa | 0 mm | - | 355 W/m² | - |
| 1778077080 | 10° C | 49% | 1042.9 hPa | 0 mm | - | 241 W/m² | - |
| 1778076178 | 10° C | 49% | 1042.8 hPa | 0 mm | - | 217 W/m² | - |
| 1778075274 | 10° C | 50% | 1042.7 hPa | 0 mm | - | 247 W/m² | - |
| 1778074370 | 9.44° C | 52% | 1042.3 hPa | 0 mm | - | 180 W/m² | - |
| 1778073468 | 10° C | 52% | 1042.5 hPa | 0 mm | - | 158 W/m² | - |
| 1778072563 | 8.89° C | 58% | 1042.3 hPa | 0 mm | - | 191 W/m² | - |
* Rain latest hour (hover to see other rain measurements)
** Current wind speed in m/s (hover to see current wind gust speed)